Location: Camerons Lookout
(40.9833°S, 175.9333°E)
Time: 00:02:23
(UTC+00:00)

SJ-6B - Pass Details

Date: 14 January 2026
Orbit: 457 x 503 km, 97.4° (Epoch: 16 February)

Event Time Altitude Azimuth Distance (km) Brightness Sun altitude
Rises 08:47:39 0° 177° (S) 2,633 6.9 -9.9°
Reaches altitude 10° 08:49:51 10° 185° (S) 1,745 6.1 -10.2°
Maximum altitude 08:53:20 37° 253° (WSW) 820 4.4 -10.7°
Drops below altitude 10° 08:56:47 10° 320° (NW) 1,732 5.4 -11.2°
Sets 08:58:58 0° 328° (NNW) 2,610 6.2 -11.5°
